STARLINK-32510, 62040

Orbit data source: Space-Track

STARLINK-32510, 62040 is a payload satellite owned by SpaceX/Seattle (US) in LEO that was launched on Thu, 21 Nov 2024 UTC via an FALCON 9 launch vehicle from the Air Force Eastern Test Range (AFETR). Payload-class satellites include a variety of spacecraft equipped with specific instruments for various scientific and technological missions. These include communications satellites like Starlink; space stations such as the ISS; scientific satellites like the Hubble; Earth observation satellites from companies like Planet Labs, Umbra, and HawkEye 360; GPS; miniature CubeSats for education and research; and military/defense satellites.

Loading next visibility...
Identifier
62040, 2024-216J
Orbit
LEO
Last TLE update
23 hours ago
Origin
Manufacturer
SpaceX/Seattle
Mission
Operational Commercial Communications
Bus & Motor
STARLINK V2M, Unknown motor
Mass
730 kg wet, ~700 kg dry
Launch date (UTC)
2024-11-21 (7 months ago)
Launch vehicle
FALCON 9
Launch site
Air Force Eastern Test Range (AFETR)
Object type
Payload
Rocket body
Debris
Shape & HBR
Box + 2 Pan, 29 m
Radar Cross Section
36.964 m², Large (>1 m²)

Expand to show TLE details & history

TLE from 23 hours ago
0 STARLINK-32510
1 62040U 24216J   25172.63492632  .00012683  00000-0  46950-3 0  9996
2 62040  43.0021 298.1546 0001041 265.8950  94.1782 15.27588250 33864
Epoch: 2025-06-21T15:14Z
TLE epoch observation values (Epoch: 2025-06-21T15:14:17.634Z)
Latitude
-0.00005°
Longitude
159.50999°
Altitude
482.852 km
Speed
7.626 km/s
True Right ascension
19h 52m 37s
True Declination
0° 00' 00"
Sunlit
Object was in full shadow at epoch
Visualization orbit readout
Latitude
-38.7169°
Longitude
95.29401°
Altitude
493.805 km
Speed
7.619 km/s
Apparent Right ascension
14h 37m 14s
Apparent Declination
-40° 07' 57"
Sunlit
Object is in full shadow
Visualization observer readout
Local Sidereal Time
01:32:57
Azimuth
263.812° W
Elevation
-77.71°
Doppler factor
1
Orbital elements
Apogee altitude
485.684 km
Perigee altitude
484.255 km
Semi-major axis
6,863.106 km
Eccentricity
0.0001
Inclination
43.0021°
RAAN
298.1546°
Arg. of periapsis
265.895°
True anomaly
Unknown
Mean anomaly
94.1782°
Eccentric anomaly
Unknown
Mean motion
3.81735 °/min
Orbital period
94.31 mins
BSTAR
0.0004695
Loading maneuver chart data...
Loading SW <> Apogee altitude chart data...
Loading historical data...
Loading historical data...
Loading historical data...
Loading historical data...
Loading historical data...
Loading historical data...
Loading historical data...

STARLINK-32510 Visibility forecast

Observer location: undefined°, undefined°

Span
Click to sort rows by Start time (UTC) header in descending order
Start Az.
Max El. time (UTC)
Max El. Az.
Max El.
End time (UTC)
End Az.
6 mins2025-06-22 15:09:19.784Z290.21° WNW2025-06-22 15:12:19.784Z358.395° N39.963°2025-06-22 15:15:19.784Z85.227° E
5 mins2025-06-22 16:49:19.784Z274.995° WNW2025-06-22 16:51:19.784Z212.555° SW39.123°2025-06-22 16:54:19.784Z130.467° SE
5 mins2025-06-23 11:24:19.784Z218.313° SW2025-06-23 11:26:19.784Z163.879° S35.912°2025-06-23 11:29:19.784Z82.841° E
5 mins2025-06-23 13:03:19.784Z275.666° WNW2025-06-23 13:05:19.784Z339.248° N40.951°2025-06-23 13:08:19.784Z68.447° E
|